Dewpoint
61 66 68 65 67 68 69 69 70 70 69 69 69 69 68 67 67 68 68 67 67 66 64 64 64 63 65 67 67 66 65 65 65 66 67 67 65 64 65 66 65 65 64
59 65 67 65 67 68 70 70 70 70 69 68 67 68 68 66 67 67 66 66 66 65 64 63 62 61 63 66 67 67 67 67 66 66 66 67 67 65 66 66 65 64 65
58 64 67 68 66 68 70 70 70 70 69 69 67 67 66 67 67 68 68 67 67 67 67 66 64 63 62 65 66 66 66 66 66 65 65 65 67 66 67 66 67 67 66
54 62 65 68 67 67 68 69 69 69 69 69 68 67 67 67 69 68 68 66 66 66 66 66 66 64 65 65 65 66 66 66 65 64 64 63 65 67 67 66 65 65 64
48 57 63 67 68 67 67 67 68 68 68 68 68 68 68 69 69 68 67 67 66 65 65 65 66 65 65 64 65 66 65 64 62 62 61 64 65 66 65 65 64 63 62
47 55 64 67 67 67 68 68 68 68 69 68 69 69 69 68 67 66 65 65 65 65 64 64 64 63 64 64 65 65 63 62 62 64 65 66 65 65 64 64 63 62 61
49 53 65 67 68 68 68 68 68 69 69 68 68 68 67 68 67 65 64 63 62 61 61 61 61 61 64 65 65 64 62 61 64 64 64 64 63 62 61 61 61 60 58
48 53 59 67 67 68 68 67 67 68 68 68 68 68 67 67 66 64 63 62 61 61 60 59 58 60 64 66 65 63 61 63 64 63 62 62 62 61 61 60 59 58 58
53 62 64 66 66 67 68 67 68 68 68 68 67 67 67 66 65 63 62 61 61 61 61 60 59 62 65 65 64 61 63 64 62 60 60 60 60 59 59 59 58 58 59
52 61 62 62 65 66 67 67 67 68 67 67 67 66 65 64 63 62 62 62 62 62 62 61 61 63 64 64 63 63 62 61 59 58 59 59 58 57 57 56 56 58 61
51 60 59 60 61 63 66 67 67 67 66 66 66 64 62 62 60 61 61 61 62 64 62 60 59 61 64 64 63 62 60 58 57 57 58 58 56 56 56 56 56 59 61
48 57 59 59 59 59 60 66 67 67 67 65 63 62 61 60 59 59 60 60 62 62 58 60 61 63 62 61 61 61 58 57 56 57 57 57 56 56 56 58 58 61 60
48 55 58 58 58 58 58 59 67 66 66 64 62 61 59 57 58 58 59 57 60 61 60 62 62 61 58 58 57 58 57 57 55 56 57 57 55 55 57 59 60 60 59
52 54 57 57 57 57 58 57 66 66 65 63 61 60 56 55 56 57 57 56 60 62 61 60 59 59 55 54 53 52 52 53 54 55 55 55 55 54 56 58 60 59 58
53 54 55 56 56 56 56 56 56 62 64 62 61 59 53 54 54 55 56 56 62 60 59 58 57 56 53 52 51 51 50 52 54 54 55 54 53 54 55 55 55 55 54
53 54 54 55 56 56 55 55 55 55 60 62 60 57 53 53 52 54 54 55 60 57 57 56 54 52 51 50 51 51 48 51 53 54 54 56 55 54 54 53 53 54 54
49 53 54 54 56 55 53 53 53 54 55 62 59 53 51 51 50 52 53 54 56 56 53 51 51 50 49 51 50 49 46 50 52 53 53 53 53 55 55 53 53 53 53
51 53 53 53 54 53 52 53 52 53 54 61 57 52 50 49 49 51 51 51 54 50 49 49 49 49 50 50 48 46 44 46 50 52 53 52 51 51 52 54 53 53 53
52 53 52 54 54 52 52 52 52 52 52 54 57 53 48 48 49 51 50 50 50 49 47 45 46 49 48 44 39 40 41 43 43 45 47 48 50 49 49 51 50 50 50
53 52 53 54 53 52 51 51 51 51 50 50 53 53 47 47 48 49 49 49 49 48 46 43 41 41 40 36 37 38 39 39 38 40 40 41 42 46 47 46 46 46 47
52 53 53 53 52 51 50 49 49 48 49 48 48 50 45 45 46 48 50 49 49 48 46 44 41 39 39 41 42 42 42 41 39 40 40 41 42 43 41 40 43 44 46
54 54 53 52 53 52 52 51 49 48 48 49 49 47 45 44 46 48 49 50 49 49 46 45 43 43 42 44 43 44 41 43 44 43 42 42 42 43 42 43 43 42 44
52 52 53 53 52 53 53 52 49 48 48 48 48 47 42 43 45 46 49 50 50 49 47 46 45 44 42 45 44 43 41 39 42 44 43 44 43 44 44 43 43 43 44
52 53 53 53 53 52 52 50 47 46 44 46 47 46 45 42 43 46 48 50 50 50 49 47 47 46 45 44 46 42 40 43 41 42 44 44 44 44 44 45 44 44 44
53 52 52 52 52 52 52 50 48 47 47 48 47 44 42 43 43 45 47 48 50 50 49 48 48 47 47 46 43 41 39 40 39 40 40 43 46 46 45 46 45 45 45
52 53 52 51 51 51 51 50 49 47 47 46 46 46 44 43 43 44 44 46 47 48 49 48 48 47 46 46 42 40 37 36 35 34 39 41 43 44 45 45 45 44 44
Wind_Speed
9 19 17 13 13 12 14 14 15 17 17 16 16 17 17 16 16 16 17 17 17 17 18 16 16 15 16 15 15 15 17 16 16 16 15 14 13 12 10 7 18 13 15
12 20 18 15 14 13 14 14 14 17 17 16 15 16 15 16 17 16 17 17 17 17 17 16 16 14 15 14 15 13 15 14 14 16 16 14 12 10 14 19 16 13 13
9 20 17 16 15 14 12 16 15 15 15 16 15 14 16 16 17 17 16 15 16 17 17 16 16 16 13 14 12 13 12 11 11 14 13 14 12 11 13 16 17 20 21
14 12 18 17 16 16 13 16 17 16 15 16 16 16 16 17 15 16 16 18 16 15 17 17 16 16 13 13 12 11 8 7 4 3 2 14 14 18 21 20 21 21 22
17 10 18 21 17 17 16 15 18 18 18 17 17 18 18 17 18 18 16 15 15 12 13 15 15 14 13 12 12 10 6 5 2 4 2 18 14 17 21 21 21 20 19
22 16 9 26 23 19 19 18 19 19 18 19 18 18 19 19 18 15 15 14 14 13 13 13 13 14 13 12 13 10 6 2 9 16 18 20 15 17 19 19 19 18 17
15 21 5 25 24 22 20 20 20 20 20 19 19 19 19 18 16 15 16 15 15 14 14 14 14 14 12 12 13 11 5 4 8 19 18 18 15 15 14 15 16 16 15
12 21 8 20 25 23 21 21 20 19 20 20 20 20 18 19 15 14 15 15 15 15 15 15 16 16 13 13 14 9 5 7 17 18 17 15 17 14 14 15 14 13 12
9 16 20 16 20 23 22 22 20 22 21 21 21 20 19 17 16 14 13 14 15 17 16 16 17 17 16 13 11 9 9 20 16 15 16 13 16 13 13 13 14 14 14
5 9 14 11 8 16 18 24 22 23 25 22 22 20 20 18 16 14 13 13 15 15 16 17 17 17 16 13 12 13 20 20 18 17 14 15 16 15 15 15 15 15 13
3 3 8 6 7 11 11 20 23 24 23 22 21 23 19 12 14 14 13 13 14 14 19 18 17 17 14 13 15 16 14 15 16 14 13 18 15 15 15 15 15 16 16
8 4 3 7 5 8 9 11 17 18 17 18 18 20 17 16 14 15 14 15 14 15 18 19 21 17 13 12 12 11 13 15 15 15 15 14 15 15 14 14 14 13 18
9 6 3 3 5 6 9 18 14 16 17 17 20 21 19 17 16 12 15 13 13 14 16 18 18 13 13 12 12 11 13 15 14 14 14 14 15 15 14 14 13 18 18
11 8 7 3 2 6 5 13 12 15 18 18 20 22 19 17 17 15 14 13 12 14 14 13 15 13 15 13 10 10 15 17 14 14 12 13 14 15 14 13 17 17 16
12 11 7 5 5 7 10 11 18 10 20 21 22 22 17 19 18 17 15 14 13 13 14 15 15 11 17 12 8 12 16 20 19 15 11 14 12 15 14 12 13 11 12
12 11 9 6 7 5 5 6 8 11 20 22 22 22 22 19 19 19 17 15 15 16 14 15 12 12 11 11 14 12 14 18 18 17 12 11 13 12 13 13 13 12 12
12 13 10 8 8 7 6 5 5 17 22 20 19 20 24 22 20 21 19 16 17 15 18 14 14 10 12 12 14 13 13 17 19 18 14 13 13 12 11 11 12 12 12
14 17 13 9 8 7 7 7 13 7 19 10 13 16 22 23 22 17 20 16 17 17 16 14 15 14 12 14 13 11 11 12 17 19 16 13 12 11 11 8 9 10 11
18 17 14 11 10 10 7 9 13 9 9 12 10 5 13 20 22 18 18 16 16 16 15 16 12 15 15 16 15 13 11 11 11 11 15 14 14 12 10 9 10 9 8
15 15 14 12 10 10 7 11 13 13 8 15 8 4 2 14 18 18 18 18 17 17 16 15 16 13 15 17 14 13 9 9 10 9 11 11 9 15 13 9 8 7 7
16 14 17 12 11 11 7 7 14 17 10 6 10 14 3 8 15 17 16 18 17 18 17 17 15 19 15 15 14 12 7 6 7 9 11 11 9 8 14 12 11 10 8
2 11 13 15 14 14 8 4 2 23 16 6 5 6 14 11 12 15 16 16 17 17 19 18 18 13 13 16 13 11 6 1 2 6 10 11 13 10 11 10 10 12 10
6 8 8 12 13 13 10 9 13 11 16 8 8 3 2 11 12 14 15 14 17 15 18 19 19 17 19 16 21 5 6 6 9 6 9 8 14 11 10 9 8 9 11
8 9 6 10 14 11 11 12 16 16 19 8 11 12 6 9 8 13 14 13 14 15 17 17 16 16 18 19 12 2 4 6 6 6 5 8 7 11 10 10 9 9 7
11 12 12 7 9 10 11 11 13 13 12 10 5 11 17 13 10 11 13 13 12 15 16 18 17 17 15 13 7 4 2 2 6 5 6 7 5 7 11 12 10 9 9
4 12 12 9 7 10 11 14 12 16 17 18 13 11 6 12 11 10 12 11 12 13 16 16 16 14 16 13 9 7 5 3 5 4 4 8 12 8 5 6 8 5 8
Wind_Direction
96 147 158 170 169 176 159 156 160 155 151 150 149 142 139 139 138 137 136 135 134 130 126 121 115 110 103 95 93 99 104 100 99 97 86 81 85 88 68 97 87 82 82
352 150 160 166 174 185 173 164 158 157 154 158 157 149 148 148 146 146 146 144 145 138 132 130 120 117 104 97 98 101 106 114 119 116 106 86 74 87 76 80 86 87 85
10 144 160 169 185 184 190 167 158 157 157 157 163 164 163 161 156 159 157 158 151 139 129 126 127 122 113 107 103 106 117 128 137 138 106 97 73 85 90 91 90 90 84
343 129 168 176 186 186 204 176 166 164 166 164 165 167 167 168 154 148 147 145 131 131 129 123 122 123 121 121 119 119 132 140 147 168 179 94 78 90 92 95 87 77 72
340 329 169 175 181 190 196 197 180 173 174 174 171 174 177 161 150 144 141 133 131 131 128 129 129 129 132 131 130 127 137 147 189 300 158 95 83 86 87 80 79 76 76
338 328 194 174 178 193 192 203 188 175 178 174 184 172 164 157 140 144 142 133 129 132 141 143 142 141 142 142 144 142 172 58 18 82 75 91 96 87 84 82 81 78 70
346 325 186 173 180 186 199 200 194 179 185 189 179 166 157 141 139 155 144 136 139 145 150 152 150 149 149 149 151 154 160 39 89 85 83 83 89 86 87 83 76 68 68
350 322 285 192 185 188 194 210 194 192 185 183 169 160 149 131 149 155 150 148 149 151 151 150 148 150 149 138 140 147 104 95 95 91 83 82 82 85 82 79 80 80 79
358 329 324 185 200 192 190 203 197 186 184 178 168 155 143 141 150 159 158 156 157 155 153 149 149 151 141 135 135 123 122 109 101 101 94 85 84 83 85 92 90 92 84
334 348 333 354 312 209 202 199 198 185 183 175 160 147 136 146 148 159 161 163 163 158 160 151 153 136 135 140 136 138 97 93 94 89 88 90 90 90 93 97 95 97 81
243 72 339 355 5 10 244 199 196 190 183 170 154 147 137 148 159 156 162 172 169 168 156 156 142 138 128 143 144 138 112 105 100 98 100 95 99 99 105 100 96 101 92
254 182 360 341 36 33 27 257 195 189 170 161 153 144 148 156 159 166 167 175 167 159 151 141 135 135 142 148 151 140 126 117 108 103 98 114 106 105 106 99 105 108 98
236 182 159 334 11 49 25 333 196 184 167 165 159 152 165 159 158 149 156 170 173 164 144 139 135 159 153 164 173 180 130 111 103 103 118 116 115 112 108 96 108 95 93
195 196 174 208 149 63 81 353 207 181 169 168 167 165 171 152 147 147 157 166 175 152 140 141 159 188 159 170 192 116 121 116 111 108 124 125 118 115 118 102 94 98 100
189 187 176 205 209 114 65 71 18 336 175 169 169 174 165 151 151 151 166 169 167 147 149 157 183 197 156 170 144 123 109 116 117 114 124 121 122 121 117 111 103 107 102
178 187 170 225 225 150 123 50 353 356 294 172 174 181 149 154 155 160 165 173 163 156 169 173 187 137 151 152 128 120 111 116 115 121 111 105 120 126 124 122 119 113 108
193 165 166 217 228 196 155 153 357 348 301 176 181 179 150 158 164 167 162 169 169 178 164 164 146 155 146 129 124 117 114 122 129 127 119 105 91 85 110 126 122 117 112
177 170 166 207 218 185 155 122 98 1 322 213 164 174 152 158 156 162 157 169 161 153 152 160 155 144 144 131 124 120 122 113 127 137 142 133 116 99 74 92 117 122 118
173 167 166 191 185 163 154 122 111 86 348 326 109 146 158 150 151 155 151 154 143 144 147 143 139 145 139 127 114 109 107 117 118 122 140 143 141 132 115 88 81 78 104
167 157 162 182 172 167 174 140 101 82 52 343 107 95 261 144 148 147 146 152 143 141 139 138 137 129 133 126 118 118 117 119 126 143 130 127 131 143 143 141 128 101 94
159 168 167 193 175 185 174 180 146 139 112 333 1 146 211 160 147 148 149 148 143 147 148 146 141 139 139 129 122 115 108 127 154 151 153 152 151 149 158 164 166 153 142
194 180 165 200 175 200 194 268 271 144 134 142 335 49 163 167 151 150 148 147 148 149 153 151 149 141 143 142 148 121 134 19 265 174 165 163 167 177 166 181 173 164 163
189 188 190 203 186 194 176 120 121 106 120 146 146 226 93 150 153 147 145 151 153 152 160 154 152 150 157 173 171 150 156 185 156 208 197 189 176 180 180 182 178 152 169
175 173 198 206 187 170 154 148 153 151 154 152 156 144 205 141 152 150 148 160 162 156 156 156 157 159 163 181 198 130 88 128 162 163 206 203 192 183 186 186 181 173 163
191 165 212 202 172 152 148 149 159 134 131 142 152 142 157 158 155 142 149 164 163 159 159 157 167 167 168 181 169 149 141 108 122 141 163 184 203 196 202 188 174 177 168
196 171 175 200 161 156 151 148 143 144 145 150 173 168 178 146 160 156 149 160 164 159 163 163 168 173 172 175 175 172 167 170 182 147 126 162 180 197 167 134 160 162 169